| time (UTC) | temp F | wind direction | speed knots | gust knots | rain 1hr in | rain 24hr in | rain mn in | humidity % | barometer mb |
| 20260504100459 | 51 | 313 | 1.7 | 2.6 | 0.00 | 0.00 | 0.00 | 52 | 1017.1 |
| 20260504081857 | 54 | 25 | 7.0 | 7.8 | 0.00 | 0.00 | 0.00 | 45 | 1016.0 |
| 20260504081354 | 54 | 13 | 5.2 | 8.7 | 0.00 | 0.00 | 0.00 | 44 | 1016.0 |
| 20260504080850 | 54 | 34 | 6.1 | 13.0 | 0.00 | 0.00 | 0.00 | 43 | 1015.7 |
| 20260504080347 | 55 | 7 | 5.2 | 6.1 | 0.00 | 0.00 | 0.00 | 42 | 1015.6 |
| 20260504070315 | 56 | 359 | 5.2 | 7.8 | 0.00 | 0.00 | 0.00 | 35 | 1013.7 |
| 20260504060235 | 57 | 46 | 7.0 | 12.2 | 0.00 | 0.00 | 0.00 | 34 | 1011.7 |
| 20260504050703 | 62 | 12 | 0.9 | 1.7 | 0.00 | 0.00 | 0.00 | 33 | 1009.8 |
| 20260504050200 | 62 | 23 | 1.7 | 3.5 | 0.00 | 0.00 | 0.00 | 32 | 1009.4 |
| 20260504045657 | 63 | 34 | 1.7 | 6.1 | 0.00 | 0.00 | 0.00 | 32 | 1009.4 |
| 20260504045157 | 63 | 6 | 2.6 | 7.0 | 0.00 | 0.00 | 0.00 | 32 | 1009.4 |
| 20260504044655 | 63 | 39 | 5.2 | 7.0 | 0.00 | 0.00 | 0.00 | 31 | 1009.4 |
| 20260504044152 | 63 | 54 | 0.0 | 3.5 | 0.00 | 0.00 | 0.00 | 31 | 1008.9 |
| 20260504043649 | 63 | 36 | 0.9 | 1.7 | 0.00 | 0.00 | 0.00 | 31 | 1009.2 |
| 20260504043146 | 62 | 59 | 0.9 | 5.2 | 0.00 | 0.00 | 0.00 | 31 | 1008.9 |
| 20260504042644 | 61 | 53 | 0.0 | 1.7 | 0.00 | 0.00 | 0.00 | 32 | 1009.2 |
| 20260504042140 | 60 | 70 | 0.0 | 1.7 | 0.00 | 0.00 | 0.00 | 33 | 1008.9 |
| 20260504041636 | 60 | 187 | 0.0 | 0.9 | 0.00 | 0.00 | 0.00 | 33 | 1009.0 |
| 20260504041132 | 60 | 187 | 0.0 | 0.9 | 0.00 | 0.00 | 0.00 | 33 | 1008.7 |
| 20260504040630 | 60 | 190 | 0.9 | 0.9 | 0.00 | 0.00 | 0.00 | 34 | 1008.5 |
| 20260504040126 | 60 | 356 | 0.0 | 0.0 | 0.00 | 0.00 | 0.00 | 33 | 1008.5 |
| 20260504035623 | 60 | 355 | 0.0 | 1.7 | 0.00 | 0.00 | 0.00 | 34 | 1008.2 |
| 20260504035120 | 60 | 342 | 0.9 | 1.7 | 0.00 | 0.00 | 0.00 | 36 | 1008.0 |
| 20260504034618 | 61 | 191 | 0.0 | 0.0 | 0.00 | 0.00 | 0.00 | 37 | 1007.7 |
| 20260504034114 | 61 | 191 | 0.0 | 0.9 | 0.00 | 0.00 | 0.00 | 36 | 1007.7 |
| 20260504033612 | 62 | 191 | 0.0 | 1.7 | 0.00 | 0.00 | 0.00 | 35 | 1007.6 |
| 20260504033109 | 62 | 190 | 0.0 | 0.9 | 0.00 | 0.00 | 0.00 | 33 | 1007.7 |
| 20260504032606 | 63 | 183 | 0.9 | 0.9 | 0.00 | 0.00 | 0.00 | 33 | 1007.5 |
| 20260504032103 | 63 | 183 | 0.0 | 0.9 | 0.00 | 0.00 | 0.00 | 31 | 1007.5 |
| 20260504031600 | 63 | 183 | 0.0 | 0.9 | 0.00 | 0.00 | 0.00 | 30 | 1007.5 |
| 20260504031056 | 64 | 183 | 0.0 | 0.9 | 0.00 | 0.00 | 0.00 | 31 | 1007.7 |
| 20260504030553 | 64 | 183 | 0.0 | 0.0 | 0.00 | 0.00 | 0.00 | 31 | 1007.4 |
| 20260504030049 | 64 | 183 | 0.0 | 0.9 | 0.00 | 0.00 | 0.00 | 30 | 1007.3 |
| 20260504025547 | 65 | 183 | 0.0 | 0.9 | 0.00 | 0.00 | 0.00 | 29 | 1007.5 |
| 20260504025043 | 66 | 182 | 0.0 | 0.0 | 0.00 | 0.00 | 0.00 | 29 | 1007.2 |
| 20260504024541 | 66 | 173 | 0.0 | 0.0 | 0.00 | 0.00 | 0.00 | 28 | 1007.4 |
| 20260504024037 | 67 | 74 | 0.0 | 0.9 | 0.00 | 0.00 | 0.00 | 27 | 1007.3 |
| 20260504023534 | 68 | 22 | 0.0 | 0.0 | 0.00 | 0.00 | 0.00 | 25 | 1007.2 |
| 20260504023030 | 68 | 21 | 0.0 | 0.0 | 0.00 | 0.00 | 0.00 | 24 | 1007.2 |
| 20260504022526 | 70 | 321 | 0.9 | 1.7 | 0.00 | 0.00 | 0.00 | 23 | 1007.2 |
| 20260504022022 | 70 | 353 | 0.9 | 1.7 | 0.00 | 0.00 | 0.00 | 22 | 1007.0 |
| 20260504021520 | 71 | 305 | 0.0 | 0.0 | 0.00 | 0.00 | 0.00 | 22 | 1007.2 |
| 20260504021017 | 71 | 348 | 0.0 | 0.0 | 0.00 | 0.00 | 0.00 | 21 | 1007.0 |
| 20260504020514 | 72 | 336 | 0.0 | 0.0 | 0.00 | 0.00 | 0.00 | 21 | 1007.0 |
| 20260504020010 | 73 | 334 | 0.9 | 0.9 | 0.00 | 0.00 | 0.00 | 20 | 1006.8 |
| 20260504015507 | 74 | 5 | 0.9 | 1.7 | 0.00 | 0.00 | 0.00 | 20 | 1006.8 |
| 20260504015003 | 74 | 38 | 0.9 | 1.7 | 0.00 | 0.00 | 0.00 | 20 | 1006.7 |
| 20260504014459 | 75 | 10 | 1.7 | 1.7 | 0.00 | 0.00 | 0.00 | 19 | 1007.1 |
| 20260504013956 | 75 | 333 | 0.9 | 1.7 | 0.00 | 0.00 | 0.00 | 18 | 1007.0 |
| 20260504013454 | 76 | 336 | 1.7 | 1.7 | 0.00 | 0.00 | 0.00 | 18 | 1007.1 |
| 20260504012950 | 76 | 221 | 0.0 | 1.7 | 0.00 | 0.00 | 0.00 | 18 | 1007.1 |
| 20260504012448 | 76 | 9 | 0.9 | 2.6 | 0.00 | 0.00 | 0.00 | 18 | 1007.0 |
| 20260504011946 | 77 | 316 | 1.7 | 2.6 | 0.00 | 0.00 | 0.00 | 18 | 1007.0 |
| 20260504011442 | 77 | 340 | 1.7 | 1.7 | 0.00 | 0.00 | 0.00 | 18 | 1007.1 |
| 20260504010938 | 77 | 214 | 0.0 | 1.7 | 0.00 | 0.00 | 0.00 | 18 | 1007.4 |
| 20260504010434 | 78 | 326 | 1.7 | 3.5 | 0.00 | 0.00 | 0.00 | 16 | 1007.4 |
| 20260504005930 | 77 | 217 | 1.7 | 1.7 | 0.00 | 0.00 | 0.00 | 16 | 1007.3 |
| 20260504005427 | 78 | 351 | 3.5 | 6.1 | 0.00 | 0.00 | 0.00 | 16 | 1007.2 |
| 20260504004924 | 78 | 260 | 1.7 | 5.2 | 0.00 | 0.00 | 0.00 | 16 | 1007.4 |
| 20260504004422 | 78 | 330 | 3.5 | 5.2 | 0.00 | 0.00 | 0.00 | 16 | 1007.5 |
| 20260504003919 | 78 | 3 | 2.6 | 5.2 | 0.00 | 0.00 | 0.00 | 16 | 1007.5 |
| 20260504003415 | 78 | 217 | 2.6 | 6.1 | 0.00 | 0.00 | 0.00 | 16 | 1007.4 |
| 20260504002912 | 79 | 292 | 3.5 | 7.0 | 0.00 | 0.00 | 0.00 | 15 | 1007.5 |
| 20260504002409 | 79 | 230 | 2.6 | 5.2 | 0.00 | 0.00 | 0.00 | 15 | 1007.6 |
| 20260504001907 | 79 | 283 | 1.7 | 5.2 | 0.00 | 0.00 | 0.00 | 16 | 1007.7 |
| 20260504001404 | 79 | 285 | 5.2 | 6.1 | 0.00 | 0.00 | 0.00 | 15 | 1007.8 |
| 20260504000900 | 79 | 268 | 1.7 | 3.5 | 0.00 | 0.00 | 0.00 | 16 | 1007.8 |
| 20260504000358 | 80 | 238 | 1.7 | 5.2 | 0.00 | 0.00 | 0.00 | 16 | 1007.8 |
| 20260503235855 | 79 | 209 | 0.9 | 3.5 | 0.00 | 0.00 | 0.00 | 15 | 1007.7 |
| 20260503235353 | 79 | 232 | 3.5 | 5.2 | 0.00 | 0.00 | 0.00 | 15 | 1007.8 |
| 20260503234850 | 79 | 270 | 3.5 | 6.1 | 0.00 | 0.00 | 0.00 | 16 | 1008.0 |
| 20260503234347 | 79 | 280 | 3.5 | 7.8 | 0.00 | 0.00 | 0.00 | 15 | 1007.8 |
| 20260503233845 | 79 | 249 | 3.5 | 7.8 | 0.00 | 0.00 | 0.00 | 16 | 1008.0 |
| 20260503233341 | 79 | 289 | 3.5 | 6.1 | 0.00 | 0.00 | 0.00 | 15 | 1007.8 |
| 20260503232837 | 79 | 267 | 1.7 | 6.1 | 0.00 | 0.00 | 0.00 | 15 | 1008.1 |
| 20260503232335 | 78 | 260 | 3.5 | 8.7 | 0.00 | 0.00 | 0.00 | 15 | 1008.0 |
| 20260503231833 | 78 | 239 | 4.3 | 6.1 | 0.00 | 0.00 | 0.00 | 15 | 1008.2 |
| 20260503231330 | 78 | 252 | 4.3 | 7.0 | 0.00 | 0.00 | 0.00 | 16 | 1008.1 |
| 20260503230825 | 78 | 280 | 7.8 | 9.6 | 0.00 | 0.00 | 0.00 | 15 | 1008.1 |
| 20260503230323 | 78 | 240 | 3.5 | 12.2 | 0.00 | 0.00 | 0.00 | 16 | 1008.1 |
| 20260503225820 | 79 | 290 | 3.5 | 7.8 | 0.00 | 0.00 | 0.00 | 16 | 1008.2 |
| 20260503225316 | 79 | 238 | 1.7 | 7.8 | 0.00 | 0.00 | 0.00 | 16 | 1008.1 |
| 20260503224812 | 79 | 257 | 4.3 | 7.0 | 0.00 | 0.00 | 0.00 | 15 | 1008.4 |
| 20260503224310 | 79 | 274 | 6.1 | 7.0 | 0.00 | 0.00 | 0.00 | 14 | 1008.4 |
| 20260503223808 | 79 | 225 | 5.2 | 7.8 | 0.00 | 0.00 | 0.00 | 15 | 1008.4 |
| 20260503223305 | 79 | 302 | 4.3 | 7.8 | 0.00 | 0.00 | 0.00 | 15 | 1008.4 |
| 20260503222800 | 79 | 37 | 3.5 | 8.7 | 0.00 | 0.00 | 0.00 | 16 | 1008.4 |
| 20260503222259 | 78 | 248 | 1.7 | 8.7 | 0.00 | 0.00 | 0.00 | 16 | 1008.5 |
| 20260503221757 | 78 | 292 | 5.2 | 8.7 | 0.00 | 0.00 | 0.00 | 16 | 1008.7 |
| 20260503221255 | 79 | 251 | 7.0 | 13.0 | 0.00 | 0.00 | 0.00 | 16 | 1008.7 |
| 20260503220751 | 78 | 272 | 4.3 | 7.0 | 0.00 | 0.00 | 0.00 | 16 | 1008.9 |
| 20260503220248 | 78 | 247 | 4.3 | 7.0 | 0.00 | 0.00 | 0.00 | 16 | 1008.9 |
| 20260503215744 | 78 | 290 | 2.6 | 8.7 | 0.00 | 0.00 | 0.00 | 17 | 1009.0 |
| 20260503215242 | 79 | 264 | 2.6 | 5.2 | 0.00 | 0.00 | 0.00 | 15 | 1009.1 |
| 20260503214740 | 78 | 8 | 2.6 | 7.0 | 0.00 | 0.00 | 0.00 | 16 | 1009.2 |
| 20260503214236 | 79 | 278 | 6.1 | 13.0 | 0.00 | 0.00 | 0.00 | 17 | 1009.1 |
| 20260503213735 | 78 | 231 | 2.6 | 7.0 | 0.00 | 0.00 | 0.00 | 17 | 1009.0 |
| 20260503213231 | 78 | 221 | 4.3 | 12.2 | 0.00 | 0.00 | 0.00 | 17 | 1009.2 |
| 20260503212728 | 78 | 262 | 8.7 | 12.2 | 0.00 | 0.00 | 0.00 | 17 | 1009.3 |
| 20260503212226 | 78 | 256 | 5.2 | 7.8 | 0.00 | 0.00 | 0.00 | 18 | 1009.4 |
| 20260503211723 | 78 | 286 | 7.8 | 9.6 | 0.00 | 0.00 | 0.00 | 18 | 1009.4 |
| 20260503211219 | 78 | 231 | 3.5 | 7.8 | 0.00 | 0.00 | 0.00 | 18 | 1009.7 |
| 20260503210715 | 77 | 270 | 6.1 | 8.7 | 0.00 | 0.00 | 0.00 | 20 | 1009.7 |
| 20260503210213 | 77 | 290 | 7.0 | 12.2 | 0.00 | 0.00 | 0.00 | 20 | 1009.9 |
| 20260503205708 | 77 | 240 | 8.7 | 12.2 | 0.00 | 0.00 | 0.00 | 19 | 1010.0 |
| 20260503205204 | 77 | 235 | 7.0 | 9.6 | 0.00 | 0.00 | 0.00 | 20 | 1010.1 |
| 20260503204700 | 77 | 255 | 1.7 | 3.5 | 0.00 | 0.00 | 0.00 | 20 | 1010.1 |
| 20260503204158 | 78 | 217 | 5.2 | 9.6 | 0.00 | 0.00 | 0.00 | 20 | 1010.2 |
| 20260503203655 | 77 | 223 | 1.7 | 6.1 | 0.00 | 0.00 | 0.00 | 21 | 1010.3 |
| 20260503203153 | 77 | 238 | 4.3 | 12.2 | 0.00 | 0.00 | 0.00 | 20 | 1010.2 |
| 20260503202650 | 78 | 284 | 7.8 | 9.6 | 0.00 | 0.00 | 0.00 | 20 | 1010.4 |
| 20260503202148 | 77 | 201 | 0.9 | 7.0 | 0.00 | 0.00 | 0.00 | 21 | 1010.3 |
| 20260503201646 | 75 | 248 | 3.5 | 8.7 | 0.00 | 0.00 | 0.00 | 21 | 1010.6 |
| 20260503201143 | 76 | 246 | 5.2 | 9.6 | 0.00 | 0.00 | 0.00 | 21 | 1010.6 |
| 20260503200639 | 76 | 235 | 7.0 | 8.7 | 0.00 | 0.00 | 0.00 | 21 | 1010.7 |
| 20260503200135 | 76 | 263 | 5.2 | 11.3 | 0.00 | 0.00 | 0.00 | 21 | 1010.6 |
| 20260503195632 | 76 | 240 | 5.2 | 9.6 | 0.00 | 0.00 | 0.00 | 20 | 1010.9 |
| 20260503195129 | 76 | 244 | 4.3 | 11.3 | 0.00 | 0.00 | 0.00 | 22 | 1010.8 |
| 20260503194626 | 75 | 210 | 5.2 | 7.8 | 0.00 | 0.00 | 0.00 | 22 | 1010.7 |
| 20260503194122 | 75 | 286 | 6.1 | 12.2 | 0.00 | 0.00 | 0.00 | 22 | 1010.9 |
| 20260503193619 | 76 | 316 | 5.2 | 8.7 | 0.00 | 0.00 | 0.00 | 22 | 1011.2 |
| 20260503193114 | 75 | 245 | 3.5 | 9.6 | 0.00 | 0.00 | 0.00 | 23 | 1011.2 |
| 20260503192610 | 75 | 302 | 2.6 | 7.0 | 0.00 | 0.00 | 0.00 | 21 | 1011.3 |
| 20260503192106 | 75 | 258 | 5.2 | 7.0 | 0.00 | 0.00 | 0.00 | 22 | 1011.3 |
| 20260503191603 | 75 | 345 | 4.3 | 7.8 | 0.00 | 0.00 | 0.00 | 22 | 1011.8 |
| 20260503191059 | 75 | 249 | 6.1 | 7.0 | 0.00 | 0.00 | 0.00 | 22 | 1011.5 |
| 20260503190556 | 75 | 253 | 4.3 | 9.6 | 0.00 | 0.00 | 0.00 | 22 | 1011.7 |
| 20260503190053 | 75 | 251 | 5.2 | 9.6 | 0.00 | 0.00 | 0.00 | 22 | 1011.8 |
| 20260503185550 | 75 | 240 | 6.1 | 11.3 | 0.00 | 0.00 | 0.00 | 23 | 1011.7 |
| 20260503185050 | 74 | 261 | 5.2 | 7.8 | 0.00 | 0.00 | 0.00 | 23 | 1012.0 |
| 20260503184546 | 74 | 260 | 6.1 | 12.2 | 0.00 | 0.00 | 0.00 | 24 | 1011.9 |
| 20260503184043 | 74 | 226 | 6.1 | 7.0 | 0.00 | 0.00 | 0.00 | 24 | 1011.9 |
| 20260503183539 | 75 | 189 | 6.1 | 8.7 | 0.00 | 0.00 | 0.00 | 23 | 1012.0 |
| 20260503183037 | 73 | 218 | 2.6 | 6.1 | 0.00 | 0.00 | 0.00 | 23 | 1012.2 |
| 20260503182535 | 73 | 284 | 5.2 | 7.8 | 0.00 | 0.00 | 0.00 | 24 | 1012.2 |
| 20260503182033 | 73 | 285 | 4.3 | 8.7 | 0.00 | 0.00 | 0.00 | 24 | 1012.1 |
| 20260503181529 | 73 | 227 | 1.7 | 6.1 | 0.00 | 0.00 | 0.00 | 24 | 1012.4 |
| 20260503181026 | 74 | 288 | 3.5 | 7.8 | 0.00 | 0.00 | 0.00 | 24 | 1012.5 |
| 20260503180523 | 74 | 233 | 3.5 | 7.8 | 0.00 | 0.00 | 0.00 | 25 | 1012.6 |
| 20260503180020 | 73 | 230 | 3.5 | 6.1 | 0.00 | 0.00 | 0.00 | 26 | 1012.7 |
| 20260503175518 | 73 | 253 | 6.1 | 8.7 | 0.00 | 0.00 | 0.00 | 25 | 1012.7 |
| 20260503175014 | 73 | 256 | 3.5 | 7.0 | 0.00 | 0.00 | 0.00 | 25 | 1012.7 |
| 20260503174512 | 73 | 213 | 3.5 | 7.8 | 0.00 | 0.00 | 0.00 | 26 | 1012.6 |
| 20260503174008 | 72 | 256 | 3.5 | 6.1 | 0.00 | 0.00 | 0.00 | 26 | 1012.7 |
| 20260503173503 | 72 | 241 | 4.3 | 7.0 | 0.00 | 0.00 | 0.00 | 27 | 1012.7 |
| 20260503173000 | 73 | 299 | 4.3 | 7.0 | 0.00 | 0.00 | 0.00 | 28 | 1012.7 |
| 20260503172458 | 72 | 236 | 1.7 | 6.1 | 0.00 | 0.00 | 0.00 | 29 | 1012.7 |
| 20260503171954 | 72 | 214 | 4.3 | 8.7 | 0.00 | 0.00 | 0.00 | 28 | 1012.7 |
| 20260503171451 | 71 | 278 | 3.5 | 6.1 | 0.00 | 0.00 | 0.00 | 29 | 1012.8 |
| 20260503170948 | 71 | 264 | 3.5 | 5.2 | 0.00 | 0.00 | 0.00 | 28 | 1012.8 |
| 20260503170444 | 71 | 209 | 4.3 | 5.2 | 0.00 | 0.00 | 0.00 | 36 | 1012.9 |
| 20260503150831 | 61 | 212 | 1.7 | 6.1 | 0.00 | 0.00 | 0.00 | 48 | 1014.2 |
| 20260503150327 | 61 | 157 | 2.6 | 5.2 | 0.00 | 0.00 | 0.00 | 48 | 1014.4 |
| 20260503140251 | 51 | 107 | 0.0 | 1.7 | 0.00 | 0.00 | 0.00 | 67 | 1015.2 |
| 20260503131221 | 45 | 211 | 0.9 | 1.7 | 0.00 | 0.00 | 0.00 | 77 | 1014.9 |
| 20260503130718 | 44 | 191 | 0.0 | 0.0 | 0.00 | 0.00 | 0.00 | 78 | 1015.1 |
| 20260503130215 | 44 | 199 | 1.7 | 1.7 | 0.00 | 0.00 | 0.00 | 78 | 1015.1 |
| 20260503120141 | 43 | 194 | 0.0 | 0.9 | 0.00 | 0.00 | 0.00 | 80 | 1015.2 |
| 20260503110609 | 45 | 160 | 0.0 | 0.0 | 0.00 | 0.00 | 0.00 | 78 | 1015.4 |
| 20260503110106 | 46 | 187 | 1.7 | 1.7 | 0.00 | 0.00 | 0.00 | 77 | 1015.4 |